Terminal Aerodrome Forecast
Issued by NWS

Home | Current Version | Previous Version | Text Only | Print | Product List | Glossary On
Versions: 1 2 3 4 5 6 7 8 9 10 11 12 13 14 15 16 17 18 19
000
FTUS44 KBMX 112300
TAFTCL
TAF
KTCL 112331Z 1200/1224 00000KT P6SM SKC
      TEMPO 1210/1213 5SM BR
     FM121500 08005KT P6SM SCT050=

USA.gov is the U.S. government's official web portal to all federal, state and local government web resources and services.